This is the latest recevied weather packets stored in our database for station/object W3EJE-13. If no packets are shown the sender has not sent any weather packets the latest 10 day(s).
| Time | Temp. | Humidity | Pressure | Rain* | Wind** | Luminosity | Snow |
|---|---|---|---|---|---|---|---|
| 1777661211 | 15° C | 44% | 1011.7 hPa | 0 mm | - | 635 W/m² | - |
| 1777660911 | 15° C | 45% | 1011.9 hPa | 0 mm | - | 350 W/m² | - |
| 1777660608 | 14.44° C | 44% | 1011.9 hPa | 0 mm | - | 893 W/m² | - |
| 1777660304 | 13.33° C | 43% | 1012 hPa | 0 mm | - | 301 W/m² | - |
| 1777660001 | 13.89° C | 43% | 1012.4 hPa | 0 mm | - | 106 W/m² | - |
| 1777659698 | 13.89° C | 45% | 1012.1 hPa | 0 mm | - | 198 W/m² | - |
| 1777659395 | 13.89° C | 41% | 1012.3 hPa | 0 mm | - | 191 W/m² | - |
| 1777659092 | 14.44° C | 44% | 1012.1 hPa | 0 mm | - | 226 W/m² | - |
| 1777658790 | 15° C | 44% | 1012 hPa | 0 mm | - | 299 W/m² | - |
| 1777658486 | 15° C | 45% | 1012.5 hPa | 0 mm | - | 740 W/m² | - |
| 1777658183 | 13.89° C | 43% | 1012.1 hPa | 0 mm | - | 481 W/m² | - |
| 1777657880 | 13.89° C | 46% | 1012.4 hPa | 0 mm | - | 212 W/m² | - |
| 1777657576 | 14.44° C | 45% | 1012.4 hPa | 0 mm | - | 308 W/m² | - |
| 1777657274 | 13.89° C | 44% | 1012.4 hPa | 0 mm | - | 290 W/m² | - |
| 1777656971 | 13.89° C | 46% | 1012.7 hPa | 0 mm | - | 257 W/m² | - |
| 1777656668 | 13.89° C | 46% | 1012.4 hPa | 0 mm | - | 298 W/m² | - |
| 1777656363 | 13.89° C | 45% | 1012.5 hPa | 0 mm | - | 364 W/m² | - |
| 1777656059 | 13.89° C | 48% | 1012.4 hPa | 0 mm | - | 350 W/m² | - |
| 1777655755 | 13.89° C | 49% | 1012.6 hPa | 0 mm | - | 262 W/m² | - |
| 1777655452 | 13.89° C | 53% | 1012.8 hPa | 0 mm | - | 253 W/m² | - |
| 1777655149 | 13.33° C | 52% | 1012.8 hPa | 0 mm | - | 284 W/m² | - |
| 1777654846 | 13.33° C | 55% | 1012.7 hPa | 0 mm | - | 312 W/m² | - |
| 1777654544 | 13.33° C | 52% | 1012.7 hPa | 0 mm | - | 341 W/m² | - |
| 1777654241 | 13.89° C | 54% | 1012.8 hPa | 0 mm | - | 395 W/m² | - |
| 1777653939 | 14.44° C | 54% | 1013.2 hPa | 0 mm | - | 513 W/m² | - |
* Rain latest hour (hover to see other rain measurements)
** Current wind speed in m/s (hover to see current wind gust speed)